Location: G�migny
(47.9646°N, 1.6950°E)
Time: 13:07:25
(UTC+00:00)

YAOGAN 6 - Pass Details

Date: 28 January 2020
Orbit: 465 x 505 km, 97.0° (Epoch: 28 February)

Event Time Altitude Azimuth Distance (km) Brightness Sun altitude
Rises 18:13:47 0° 182° (S) 2,582 6.4 -14.7°
Reaches altitude 10° 18:15:56 10° 190° (S) 1,699 5.6 -15.0°
Maximum altitude 18:19:25 42° 262° (W) 722 4.0 -15.6°
Drops below altitude 10° 18:22:54 10° 334° (NNW) 1,693 5.5 -16.2°
Sets 18:25:03 0° 342° (NNW) 2,573 6.4 -16.5°
